sat.trackr.live / text

‹ back to catalog

ONEWEB-0627

NORAD 55168 · 2023-004AE

PAYLOAD ACTIVE UNKNOWN

§ Identity

Operator
Country
UK
Launch date
2023-01-10
Launch site
AFETR
Launch vehicle
Mass (kg)
RCS (m²)

Purposes: comms

External: N2YO · Heavens-Above · Gunter

§ Orbital elements

Epoch: 2026-05-25T03:06:11.348064Z

Period
109.29 min
Inclination
87.9153°
Eccentricity
0.0002286
Mean motion
13.17650938 rev/d
Perigee alt
1,192.0 km
Apogee alt
1,195.4 km
Semi-major
7,571.8 km
B*
-1.4395e-5
RAAN
10.4601°
Arg perigee
91.2199°
Mean anomaly
268.9195°
Rev number
16,454

§ Raw data

ONEWEB-06271 55168U 23004AE  26145.12929801  .00000007  00000+0 -14395-4 0  99972 55168  87.9153  10.4601 0002286  91.2199 268.9195 13.17650938164544

JSON: /api/v1/satellites/55168 · /tle

For live sub-satellite position, see the globe view (requires WebGL).

§ Visibility from observer

Set your observer location to see the next 7 days of passes ≥ 10°. The values pass through the URL so the page stays shareable.

No JS? Fill the form by hand. The geolocation button needs JavaScript.